Temperature
18 18 18 18 18 18 18 18 18 18 18 18 18 18 18 18 17 18 18 17 17 17 17 17 17 17 17 17 17 17 17 17 16 16 16 16 16 16 16 16 16 16 16
18 18 18 18 18 18 18 18 18 18 18 18 18 18 18 18 18 18 18 17 17 17 17 17 17 17 17 17 17 17 17 16 17 16 16 16 16 16 16 16 16 16 16
18 18 18 18 18 18 18 18 18 18 18 18 18 18 18 18 18 18 18 18 17 17 17 17 17 17 17 17 17 17 16 16 16 16 16 16 16 16 16 16 16 16 16
18 18 18 18 18 18 18 18 18 18 18 18 18 18 18 18 18 18 18 18 18 17 17 17 17 17 17 17 17 17 17 16 16 16 16 16 16 16 16 16 16 16 16
18 18 18 18 18 18 18 18 18 18 18 18 18 18 18 18 18 18 18 18 18 17 17 17 17 17 17 17 17 17 17 17 16 16 16 16 16 16 16 16 16 16 16
18 18 18 18 18 18 18 18 18 18 18 18 18 18 18 18 18 18 18 18 18 17 17 17 17 17 17 17 17 17 16 16 16 16 16 16 16 16 16 16 16 15 15
18 18 18 18 18 18 18 18 18 18 18 18 18 18 18 18 18 18 18 18 18 17 17 17 17 17 17 17 17 17 16 16 16 16 16 16 16 16 16 16 15 15 15
18 18 18 18 18 18 18 18 18 18 18 17 17 17 17 17 18 18 18 18 18 17 17 17 17 17 17 17 17 17 17 16 16 16 16 16 16 16 16 16 15 15 15
18 18 18 18 18 18 18 18 18 18 17 17 17 17 17 17 17 17 17 17 17 17 17 17 17 17 17 17 16 16 16 16 16 16 16 16 16 16 16 15 15 15 15
18 18 18 18 18 18 18 18 18 18 17 17 17 17 17 17 17 17 17 17 17 17 17 17 17 17 17 16 16 16 16 16 16 16 16 16 15 15 15 15 15 15 15
18 18 18 18 18 18 18 18 17 17 17 17 17 17 17 17 17 17 17 17 17 17 17 17 17 16 16 16 16 16 16 16 16 16 16 15 15 15 15 15 15 15 15
18 18 18 18 17 17 17 17 17 17 17 17 17 17 17 17 17 17 16 16 17 17 16 16 16 16 16 16 16 16 16 16 16 16 15 15 15 15 15 15 15 15 15
18 18 18 17 17 17 17 17 17 17 17 17 17 17 17 16 16 16 16 16 16 16 16 16 16 16 16 16 16 16 16 16 16 16 15 15 15 15 15 15 15 15 15
18 18 17 17 17 17 17 17 17 17 17 17 16 16 16 16 16 16 16 16 15 15 16 16 16 16 15 15 15 15 16 15 15 15 15 15 15 15 15 15 15 15 14
17 17 17 17 17 17 17 16 16 16 16 16 16 16 16 16 16 16 15 15 15 14 15 15 15 15 15 15 15 15 15 15 15 15 15 15 15 15 15 14 14 14 14
17 17 17 17 17 17 17 16 16 16 16 16 16 16 16 16 16 16 15 15 15 14 14 14 15 15 15 15 15 15 15 15 15 15 15 15 15 15 15 14 14 14 14
17 17 17 17 17 17 16 16 16 16 16 16 16 16 16 15 15 15 15 15 15 14 14 14 14 14 14 15 15 15 14 14 14 14 14 14 14 14 14 14 14 14 14
17 17 17 16 16 16 16 16 16 16 15 15 15 15 15 15 15 15 15 15 15 14 14 14 14 14 14 14 14 14 14 14 14 14 14 14 14 14 14 14 14 14 14
17 16 16 16 16 16 16 16 15 15 15 15 15 15 15 14 14 14 14 14 14 14 14 14 13 13 14 14 14 14 14 14 14 14 14 14 14 14 14 14 14 14 14
16 16 16 16 16 16 15 15 15 15 15 15 14 14 14 14 14 14 14 14 14 14 14 13 13 13 13 13 13 13 13 13 13 14 13 13 13 13 13 13 13 13 13
16 16 16 16 15 15 15 15 15 14 14 14 14 14 14 14 14 14 14 14 14 13 13 13 13 13 13 13 13 13 13 13 13 13 13 13 13 13 13 13 13 13 13
16 16 15 15 15 15 15 15 14 14 14 14 14 14 14 14 14 14 13 13 13 13 13 13 13 13 13 12 13 13 12 13 13 13 13 13 13 13 13 13 13 13 13
16 15 15 15 15 15 15 14 14 14 14 14 14 14 14 14 14 13 13 13 13 13 13 13 12 12 12 12 12 12 12 12 12 12 12 13 13 13 13 12 12 12 12
15 15 15 15 15 15 14 14 14 14 14 14 13 13 13 13 13 13 13 13 13 13 12 12 12 12 12 12 12 12 12 12 12 12 12 12 12 12 12 12 12 12 12
15 15 15 15 15 14 14 14 14 14 14 13 13 13 13 13 13 13 13 13 13 13 12 12 12 12 12 12 12 12 12 12 12 12 12 11 12 12 12 12 12 12 12
14 14 14 14 14 14 14 13 13 13 13 13 13 13 13 13 13 13 13 13 13 12 12 12 12 12 12 12 12 12 12 12 11 11 11 11 11 11 11 11 12 11 11
Wind_Speed
2 2 2 2 2 2 2 1 1 1 2 2 2 2 2 2 2 3 3 5 5 6 6 6 6 7 7 8 8 9 10 10 10 9 9 10 10 11 12 12 11 11 12
2 2 2 2 2 2 1 1 1 1 2 2 2 1 1 1 2 2 2 3 4 5 5 6 6 6 6 7 8 8 8 8 8 8 8 9 9 10 10 11 11 11 11
2 2 2 2 2 2 2 2 2 2 2 2 2 1 1 1 1 2 2 2 2 4 4 4 5 5 6 6 6 6 6 6 7 7 8 8 8 8 9 9 9 10 11
2 2 2 1 1 2 2 1 2 2 2 2 2 2 1 0 0 1 1 1 2 2 2 3 4 5 5 5 5 6 6 7 7 8 8 8 8 9 10 10 10 10 11
2 2 2 1 1 2 2 2 2 2 1 2 2 2 2 1 1 0 1 1 1 2 2 3 4 4 5 5 5 6 6 6 6 7 8 9 9 10 10 10 10 10 11
2 2 2 2 2 2 2 2 2 2 1 1 1 2 2 1 1 1 1 1 1 1 2 3 3 3 4 5 5 5 5 6 6 7 8 8 9 10 11 11 11 11 11
2 2 2 2 2 2 2 2 1 2 2 1 1 2 3 2 2 1 1 1 1 2 2 2 2 3 3 3 4 4 5 5 6 7 8 8 8 9 10 11 11 11 11
2 2 2 2 2 2 2 2 2 1 1 2 1 1 2 3 2 2 1 1 1 1 1 2 2 2 2 2 3 4 4 5 6 6 6 6 6 8 10 10 10 11 11
2 2 2 2 2 2 1 1 2 2 1 1 1 1 1 1 2 2 2 1 1 1 1 1 1 2 2 2 3 4 5 6 7 7 6 5 5 7 9 10 10 10 11
2 2 2 2 1 1 1 0 1 1 1 0 1 1 1 2 1 2 2 2 2 2 2 2 1 1 1 2 2 3 4 4 4 6 6 6 6 7 8 9 10 11 11
3 2 2 2 2 1 1 1 1 1 1 1 0 0 0 1 1 1 2 3 3 2 2 2 1 1 2 2 2 4 4 3 3 5 5 5 6 7 8 8 9 10 11
2 3 2 2 1 1 1 1 1 1 1 1 1 1 1 1 1 1 2 2 3 3 2 2 1 2 2 2 3 4 3 3 3 3 5 5 6 6 7 8 9 10 10
1 1 2 2 1 1 1 1 1 1 1 1 0 0 0 0 1 1 1 1 2 2 2 1 1 2 2 3 3 4 4 4 3 4 4 5 6 6 6 8 9 9 10
1 1 0 1 1 1 1 1 1 0 1 1 1 1 0 0 0 1 1 1 1 2 2 3 2 2 2 3 4 4 3 4 4 4 4 5 6 7 7 7 8 8 9
1 1 0 1 1 1 1 1 1 1 1 1 1 1 0 1 0 1 1 1 1 1 2 2 2 2 3 3 4 3 3 4 4 4 4 4 5 6 7 8 8 8 9
1 1 0 1 1 1 0 1 0 1 1 1 1 1 1 1 0 0 1 1 1 2 2 2 2 3 3 3 4 3 4 4 4 4 4 4 5 5 5 6 7 8 8
1 1 1 1 0 1 0 0 0 0 1 1 1 1 1 1 1 1 0 1 1 2 3 3 2 2 2 3 4 4 4 3 3 3 4 4 4 5 5 5 5 6 7
2 1 1 0 1 1 0 1 1 1 0 1 1 1 2 1 1 1 1 1 1 2 3 3 2 2 2 3 3 3 3 2 2 3 4 5 4 5 5 5 5 4 5
2 1 1 1 1 1 1 1 1 1 1 1 1 1 2 1 2 1 1 1 1 1 2 2 3 2 2 3 3 3 4 3 3 3 4 4 4 5 5 5 5 5 5
2 2 1 1 1 1 1 1 1 1 1 1 1 2 2 2 2 2 1 2 1 1 1 2 3 2 2 2 2 3 4 3 4 3 3 4 4 5 5 5 5 5 5
2 2 1 1 1 1 1 2 1 1 1 1 2 2 2 2 2 2 1 2 1 1 1 2 2 2 3 2 3 2 3 4 3 2 3 3 3 3 3 4 5 6 6
1 1 1 1 2 2 1 1 1 1 1 1 3 3 3 3 3 3 3 2 2 2 2 2 2 3 4 4 3 3 2 2 3 2 2 4 2 3 3 3 4 5 6
0 0 1 1 2 2 1 1 2 2 2 2 2 3 3 3 3 3 3 3 3 3 3 3 4 5 5 5 4 4 3 3 4 3 2 3 3 4 4 3 4 5 5
0 0 1 1 1 2 2 2 1 1 2 2 3 3 3 4 3 2 2 3 4 4 4 4 5 6 6 5 5 4 4 4 4 3 2 3 3 3 4 4 5 5 4
0 1 1 1 1 3 2 1 0 1 1 3 3 3 3 3 4 2 1 3 5 5 4 4 5 6 7 6 4 2 2 2 3 3 2 2 3 3 3 3 4 4 3
1 1 1 1 2 3 3 2 1 0 1 3 3 3 3 3 4 2 2 2 4 6 5 5 5 5 5 4 3 4 4 3 3 3 2 2 2 1 2 2 2 2 2
Wind_Direction
56 44 36 32 31 41 53 56 58 61 75 82 107 121 132 153 174 189 200 199 205 216 223 224 222 220 217 217 221 223 225 224 223 223 225 225 226 217 213 211 211 211 208
71 58 46 34 25 33 51 69 79 73 71 74 74 82 116 146 177 189 213 224 220 228 238 235 230 235 234 227 224 227 230 232 232 232 231 229 229 222 215 214 213 210 208
79 72 64 43 27 41 58 63 59 63 73 68 54 50 68 117 169 192 211 230 239 229 233 241 238 245 245 238 231 229 228 229 231 232 232 227 221 221 215 212 211 207 204
86 85 70 45 42 58 65 65 58 60 53 47 35 13 19 12 198 192 188 203 220 231 237 244 245 250 249 242 240 243 242 239 234 231 231 226 225 223 217 213 211 208 204
84 96 76 59 64 64 53 56 59 70 53 32 31 22 11 350 322 261 182 194 213 233 247 254 253 252 252 252 251 250 253 254 242 233 234 232 231 224 217 214 212 208 205
85 105 93 70 74 70 53 49 53 53 55 18 27 22 8 357 358 337 285 259 241 251 255 265 272 266 259 262 260 251 256 261 251 241 240 238 237 227 217 212 209 206 205
63 88 80 68 71 79 75 72 65 59 38 31 46 11 9 24 21 357 343 338 301 273 253 251 255 257 267 266 264 254 254 258 256 247 241 237 235 223 213 209 206 204 206
47 80 81 79 76 80 65 67 78 66 31 41 74 48 2 354 0 13 8 336 308 304 286 258 240 235 243 258 267 264 258 253 252 249 241 235 230 218 208 208 208 206 207
45 62 88 95 87 99 101 78 96 105 69 21 59 115 117 282 318 334 349 352 330 317 302 284 258 249 248 257 272 272 265 259 246 238 236 231 231 225 213 211 213 213 211
39 49 70 87 80 91 112 129 111 113 130 65 23 79 169 176 213 319 328 336 331 317 307 309 288 258 268 264 270 287 292 285 250 233 236 241 238 233 220 217 218 219 217
28 36 56 68 58 53 50 59 76 94 140 164 186 184 142 95 148 196 299 324 333 322 315 303 303 296 290 278 279 293 297 300 260 239 242 247 241 233 220 220 223 223 222
19 25 52 49 33 27 27 52 76 103 121 141 143 151 159 157 200 193 240 292 310 314 318 303 303 301 301 303 293 300 295 294 282 258 244 241 243 238 228 227 230 228 226
358 358 28 31 8 359 23 45 67 43 50 80 106 204 184 217 173 177 195 266 295 308 318 318 316 331 320 319 306 303 291 286 284 269 253 247 242 240 243 241 238 237 235
241 280 15 1 347 1 32 51 60 20 43 22 357 18 37 333 166 173 182 189 296 312 310 302 318 327 318 313 309 303 300 292 281 271 259 252 248 241 239 245 242 240 239
232 237 304 336 335 350 12 68 56 4 47 16 346 355 357 331 357 218 196 179 193 276 299 306 315 325 322 311 319 307 295 301 291 280 266 259 258 254 248 245 243 238 238
239 252 288 299 337 342 358 83 42 351 34 351 349 26 336 300 285 233 194 189 189 206 261 294 280 310 321 327 329 320 306 309 298 293 278 266 259 259 258 251 247 241 238
214 235 251 260 277 296 295 125 266 340 43 358 354 12 330 332 326 310 219 189 195 196 249 287 283 310 311 319 333 329 321 309 308 296 285 277 265 256 254 257 249 248 236
201 208 217 204 254 271 259 199 243 267 218 283 306 341 319 336 343 316 279 248 234 216 226 274 296 307 300 311 317 316 325 319 298 306 293 283 272 258 257 251 245 246 246
183 189 182 188 226 237 236 232 218 231 231 248 265 270 285 302 316 314 301 279 266 244 221 249 285 296 293 321 327 321 323 321 314 312 298 290 287 277 262 252 242 238 237
186 204 211 211 213 214 215 216 198 220 252 281 281 267 266 259 265 277 287 279 274 271 245 254 278 298 297 311 319 317 319 320 313 314 317 307 298 288 276 260 243 237 232
209 210 206 225 232 218 220 199 206 230 253 293 301 291 279 270 250 252 270 265 249 257 263 267 282 296 299 311 304 289 292 307 302 298 313 312 309 300 288 271 251 240 234
201 194 215 235 247 258 243 185 187 228 255 274 294 304 301 302 293 285 276 262 231 227 246 251 265 275 281 277 283 283 286 304 296 288 287 296 296 289 285 267 264 253 241
112 341 264 251 263 265 264 254 232 221 244 263 279 299 307 314 309 305 311 305 290 263 231 231 256 265 271 266 263 273 266 264 264 277 270 280 275 278 280 278 272 261 251
172 262 294 279 279 291 291 278 280 261 270 281 281 277 283 299 301 295 303 315 309 295 269 247 248 261 269 267 246 251 261 271 275 267 236 261 281 278 290 282 274 259 251
207 283 293 285 281 291 298 294 10 313 302 297 295 290 280 288 301 298 294 302 308 308 299 285 274 279 283 280 255 247 257 267 283 279 236 246 274 289 289 284 285 277 269
229 266 291 287 276 280 289 272 195 240 302 305 308 304 294 288 301 299 264 277 291 295 307 316 316 317 310 305 275 227 229 245 269 273 242 228 257 269 286 291 314 317 291
Height
1507 1507 1508 1508 1508 1509 1509 1509 1510 1510 1510 1511 1512 1512 1512 1513 1513 1513 1514 1515 1516 1517 1518 1519 1519 1520 1520 1521 1521 1522 1523 1524 1525 1526 1527 1528 1528 1529 1531 1532 1534 1535 1537
1509 1509 1509 1510 1510 1510 1510 1510 1511 1511 1511 1512 1512 1512 1513 1513 1513 1513 1514 1515 1516 1516 1517 1518 1518 1519 1519 1520 1520 1521 1521 1521 1522 1523 1524 1525 1526 1526 1528 1529 1531 1532 1534
1511 1511 1511 1511 1511 1511 1511 1511 1512 1512 1512 1512 1512 1513 1513 1513 1513 1514 1514 1515 1515 1516 1516 1517 1517 1518 1518 1519 1519 1519 1520 1520 1520 1521 1521 1522 1523 1524 1525 1526 1527 1529 1531
1512 1512 1512 1512 1513 1512 1512 1512 1512 1512 1513 1513 1513 1513 1513 1513 1513 1514 1514 1514 1515 1515 1515 1516 1516 1517 1517 1517 1517 1517 1518 1518 1518 1518 1518 1519 1520 1521 1522 1523 1524 1526 1527
1514 1514 1514 1513 1513 1513 1513 1513 1513 1513 1513 1513 1513 1513 1513 1513 1513 1513 1514 1514 1514 1514 1515 1515 1515 1515 1515 1515 1515 1515 1515 1515 1515 1515 1515 1516 1516 1517 1518 1519 1521 1522 1524
1515 1515 1515 1514 1514 1514 1514 1514 1514 1514 1514 1514 1514 1513 1513 1513 1513 1513 1513 1514 1514 1514 1514 1514 1514 1514 1514 1514 1513 1513 1513 1513 1513 1513 1513 1513 1513 1513 1514 1516 1517 1519 1521
1516 1516 1515 1515 1515 1514 1514 1514 1514 1514 1514 1514 1514 1513 1513 1513 1513 1513 1513 1513 1513 1513 1513 1513 1513 1512 1512 1512 1512 1511 1511 1510 1510 1510 1510 1510 1510 1510 1511 1513 1514 1516 1518
1516 1516 1516 1515 1515 1515 1515 1515 1515 1515 1515 1514 1514 1514 1513 1514 1513 1513 1513 1513 1513 1512 1512 1511 1511 1511 1510 1510 1509 1509 1508 1507 1507 1507 1507 1507 1507 1507 1508 1510 1511 1513 1515
1516 1516 1516 1516 1516 1516 1515 1515 1515 1515 1515 1515 1514 1515 1514 1513 1513 1513 1512 1512 1512 1511 1511 1510 1509 1509 1508 1508 1507 1506 1505 1504 1503 1504 1505 1505 1505 1505 1506 1507 1509 1510 1512
1517 1516 1516 1516 1516 1516 1515 1515 1515 1515 1514 1514 1514 1514 1514 1513 1513 1512 1512 1511 1511 1510 1509 1508 1508 1507 1507 1506 1505 1504 1502 1500 1498 1500 1502 1503 1503 1503 1504 1505 1506 1508 1509
1517 1516 1516 1516 1516 1515 1515 1515 1515 1514 1514 1514 1513 1513 1513 1512 1512 1511 1510 1510 1510 1509 1508 1507 1506 1506 1505 1504 1503 1502 1500 1499 1497 1499 1500 1500 1500 1501 1501 1502 1504 1505 1506
1517 1516 1516 1516 1515 1515 1514 1514 1514 1514 1514 1513 1513 1512 1512 1511 1511 1510 1509 1508 1508 1507 1506 1506 1505 1504 1503 1502 1501 1500 1499 1498 1498 1498 1498 1498 1499 1499 1499 1500 1501 1502 1503
1516 1516 1516 1515 1515 1514 1514 1513 1513 1513 1513 1512 1511 1511 1511 1510 1510 1509 1508 1507 1506 1505 1505 1504 1503 1502 1501 1500 1499 1498 1498 1497 1497 1496 1496 1496 1496 1496 1497 1497 1498 1498 1499
1515 1515 1515 1515 1514 1514 1513 1513 1512 1512 1511 1511 1510 1510 1509 1509 1508 1507 1507 1506 1504 1503 1502 1502 1501 1500 1499 1499 1498 1497 1496 1495 1495 1494 1494 1494 1494 1494 1494 1494 1495 1495 1496
1514 1514 1514 1513 1513 1513 1512 1512 1511 1510 1510 1509 1509 1508 1508 1507 1507 1506 1505 1504 1504 1502 1501 1500 1500 1499 1498 1497 1496 1495 1494 1493 1492 1492 1491 1491 1491 1491 1491 1491 1491 1491 1492
1513 1513 1512 1512 1512 1511 1511 1510 1510 1509 1508 1508 1507 1506 1506 1505 1505 1504 1503 1502 1502 1501 1499 1498 1498 1497 1496 1495 1494 1493 1492 1491 1490 1489 1489 1488 1488 1488 1488 1488 1487 1488 1488
1511 1511 1511 1510 1510 1510 1509 1508 1508 1507 1506 1506 1505 1504 1504 1503 1502 1502 1501 1500 1500 1499 1497 1496 1496 1495 1494 1492 1491 1490 1489 1488 1487 1487 1486 1485 1485 1484 1484 1484 1484 1484 1484
1510 1510 1509 1509 1508 1508 1507 1506 1506 1505 1504 1504 1503 1502 1502 1501 1500 1500 1499 1498 1497 1496 1495 1494 1493 1492 1491 1490 1489 1487 1486 1485 1485 1484 1483 1482 1482 1481 1481 1481 1481 1481 1481
1507 1508 1507 1507 1507 1506 1506 1505 1504 1503 1502 1502 1501 1501 1500 1499 1498 1498 1497 1496 1495 1494 1493 1492 1491 1490 1489 1488 1486 1485 1484 1483 1482 1481 1480 1479 1479 1478 1478 1477 1477 1477 1477
1505 1505 1505 1505 1505 1505 1504 1503 1502 1501 1500 1500 1499 1499 1498 1497 1496 1496 1495 1494 1493 1492 1491 1490 1488 1487 1486 1485 1484 1482 1481 1480 1479 1478 1477 1476 1476 1475 1474 1474 1474 1473 1473
1503 1503 1503 1503 1503 1502 1502 1501 1500 1499 1498 1497 1497 1497 1496 1495 1494 1494 1492 1491 1490 1489 1488 1487 1486 1484 1483 1482 1481 1479 1478 1477 1476 1475 1474 1474 1473 1472 1470 1470 1470 1470 1470
1500 1501 1501 1501 1501 1500 1500 1499 1498 1497 1497 1496 1495 1494 1494 1493 1492 1491 1490 1489 1488 1487 1485 1484 1483 1481 1480 1479 1478 1477 1475 1474 1472 1473 1471 1470 1469 1468 1467 1466 1466 1466 1466
1499 1499 1499 1499 1498 1498 1498 1497 1497 1496 1495 1494 1493 1492 1491 1490 1490 1489 1488 1487 1486 1484 1483 1482 1480 1479 1477 1477 1475 1474 1472 1471 1470 1469 1468 1465 1465 1464 1464 1463 1462 1462 1462
1497 1497 1497 1497 1496 1496 1496 1495 1494 1493 1492 1491 1490 1490 1489 1488 1487 1486 1485 1484 1483 1482 1481 1479 1477 1476 1475 1474 1472 1471 1469 1468 1467 1466 1464 1462 1461 1460 1460 1459 1459 1458 1458
1495 1495 1495 1494 1494 1493 1493 1493 1492 1491 1490 1489 1488 1487 1486 1485 1484 1483 1482 1480 1479 1478 1477 1476 1475 1473 1472 1470 1469 1467 1466 1464 1463 1462 1461 1460 1458 1457 1456 1455 1455 1455 1455
1493 1493 1493 1492 1491 1491 1491 1491 1490 1489 1487 1486 1485 1484 1483 1482 1481 1480 1479 1477 1476 1474 1474 1472 1471 1470 1468 1467 1466 1464 1462 1461 1459 1458 1457 1456 1455 1454 1453 1452 1452 1452 1451